CAPE
1993 1295 1054 954 722 506 152 2 0 10 7 1 0 0 0 4 0 0 2 2 6 9 9 11 20 18 10 13 14 14 7 24 22
1633 1207 1042 854 614 250 51 3 5 5 5 0 0 0 0 0 0 1 3 7 16 21 14 10 18 17 21 18 21 20 17 12 13
1616 1171 883 774 561 194 14 8 5 9 4 0 0 0 0 0 0 5 7 30 25 17 15 12 16 12 17 12 19 20 18 19 17
1411 1085 936 714 436 170 16 7 3 6 3 0 0 0 0 0 0 5 10 38 9 18 22 19 12 18 9 7 20 22 8 11 8
915 695 622 449 173 77 17 16 8 7 0 0 0 0 0 0 0 5 11 23 9 17 25 24 11 20 6 10 14 9 18 15 6
666 372 206 138 18 9 29 24 20 13 0 0 0 0 0 0 0 2 34 24 20 16 8 12 11 17 5 16 7 6 8 11 12
706 222 5 10 0 0 13 25 15 3 0 0 0 0 0 0 2 1 27 19 25 12 5 5 7 13 5 8 5 4 9 10 7
524 252 8 38 0 0 9 23 11 0 0 0 0 0 0 0 2 3 28 28 18 17 5 5 6 5 6 8 12 5 8 9 7
19 116 33 16 0 5 9 11 2 0 0 0 0 0 0 0 5 3 20 31 12 3 9 4 5 5 5 6 2 11 7 8 5
10 99 114 26 1 2 6 8 7 2 0 0 0 0 0 0 2 10 10 24 21 12 9 7 4 5 3 3 5 9 7 5 4
1 5 119 33 5 1 5 7 6 2 0 0 0 0 0 1 0 10 10 10 26 13 13 2 2 11 13 11 8 7 6 6 6
4 7 1 21 1 0 2 2 7 1 0 0 0 0 0 3 0 14 12 10 6 15 11 3 2 11 10 10 8 6 5 5 4
8 7 5 5 10 3 0 0 1 0 0 0 1 2 2 5 3 0 0 2 4 7 22 8 2 4 8 8 8 5 3 1 1
8 4 6 1 3 0 0 0 0 0 0 0 2 4 7 8 6 5 1 1 1 4 7 5 6 7 2 8 7 3 2 0 0
3 4 3 8 3 0 0 0 0 0 0 0 2 6 8 8 13 8 1 1 2 3 2 4 1 3 5 4 7 4 2 1 0
3 9 6 12 4 7 0 0 0 0 0 3 0 0 0 1 6 9 4 5 1 2 0 0 6 0 7 8 6 4 2 0 0
3 6 19 8 7 4 0 0 0 0 0 1 0 0 0 0 0 0 4 3 5 5 3 2 5 0 0 3 8 5 3 0 0
7 21 28 8 10 5 6 0 0 0 0 0 0 1 0 1 0 0 3 4 3 1 2 1 1 0 0 0 0 0 1 0 0
1 4 27 15 7 5 9 0 0 0 0 0 0 0 0 0 0 0 0 1 4 1 1 0 0 0 0 0 0 0 0 0 0
5 10 13 31 12 2 6 0 0 0 0 0 0 0 0 0 0 0 0 0 1 0 0 0 0 0 0 0 0 0 0 0 0
CIN
-0 -0 -2 -4 -9 -1 -74 -0 -0 -0 -0 -0 -0 -0 -0 -48 -0 -0 -0 -0 -0 -0 -0 -0 -0 -1 -0 -0 -0 -0 -0 -0 -0
-1 -2 -3 -2 -6 -29 -138 -0 -0 -0 -0 -0 -0 -0 -0 -0 -0 -0 -0 -0 -0 -0 -1 -1 -0 -0 -0 -0 -0 -1 -2 -1 -1
-0 -1 -2 -0 -2 -58 -0 -0 -0 -0 -0 -0 -0 -0 -0 -0 -0 -0 -0 -0 -0 -1 -0 -1 -1 -0 -0 -0 -0 -0 -0 -0 -0
-1 -1 -0 -0 -13 -83 -0 -0 -2 -0 -0 -0 -0 -0 -0 -0 -0 -0 -0 -1 -0 -0 -1 -2 -0 -0 -1 -0 -0 -0 -0 -0 -0
-3 -2 -1 -0 -47 -0 -0 -0 -1 -0 -0 -0 -0 -0 -0 -0 -0 -0 -0 -0 -2 -0 -1 -1 -0 -0 -1 -0 -0 -0 -0 -1 -0
-3 -2 -13 -32 -4 -1 -1 -1 -4 -2 -0 -0 -0 -0 -0 -0 -0 -1 -3 -0 -1 -0 -0 -0 -0 -0 -0 -0 -0 -0 -0 -0 -0
-0 -4 -7 -12 -0 -0 -1 -2 -8 -5 -0 -0 -0 -0 -0 -0 -0 -0 -3 -1 -1 -0 -0 -0 -0 -0 -0 -0 -0 -0 -0 -0 -0
-8 -13 -18 -2 -0 -0 -1 -10 -2 -0 -0 -0 -0 -0 -0 -0 -0 -8 -2 -1 -0 -0 -0 -0 -1 -1 -0 -0 -0 -0 -0 -0 -0
-0 -10 -6 -1 -0 -0 -0 -4 -0 -0 -0 -0 -0 -0 -0 -0 -1 -8 -13 -3 -1 -0 -0 -1 -2 -2 -2 -0 -0 -0 -0 -0 -0
-0 -16 -2 -3 -3 -1 -0 -0 -0 -0 -0 -0 -0 -0 -0 -0 -2 -1 -9 -4 -2 -1 -0 -2 -0 -0 -0 -1 -0 -0 -0 -0 -0
-1 -0 -4 -7 -3 -9 -0 -0 -0 -0 -0 -0 -0 -0 -0 -0 -0 -5 -14 -7 -2 -0 -0 -0 -0 -0 -0 -0 -0 -0 -0 -0 -0
-0 -0 -0 -14 -2 -3 -8 -1 -0 -0 -0 -0 -0 -0 -0 -1 -0 -2 -8 -12 -11 -1 -0 -2 -0 -0 -0 -0 -0 -0 -0 -0 -0
-0 -0 -0 -0 -10 -45 -0 -0 -0 -0 -0 -0 -0 -0 -1 -2 -0 -0 -0 -4 -5 -6 -2 -0 -1 -0 -0 -0 -0 -0 -0 -0 -0
-0 -0 -0 -0 -2 -9 -0 -0 -0 -0 -0 -0 -0 -0 -0 -1 -0 -0 -3 -2 -6 -5 -10 -2 -1 -0 -0 -0 -0 -0 -0 -0 -0
-0 -0 -0 -0 -0 -0 -0 -0 -0 -0 -0 -0 -1 -2 -5 -5 -1 -1 -0 -4 -10 -16 -11 -16 -2 -1 -0 -0 -0 -0 -0 -0 -0
-0 -0 -0 -0 -0 -0 -0 -0 -0 -0 -0 -4 -0 -0 -0 -4 -0 -1 -1 -1 -1 -10 -2 -2 -3 -0 -0 -0 -0 -0 -0 -0 -0
-0 -0 -0 -0 -0 -0 -1 -0 -0 -0 -0 -1 -1 -0 -0 -0 -0 -2 -1 -1 -1 -1 -1 -1 -2 -3 -0 -2 -0 -0 -0 -0 -0
-0 -0 -0 -0 -0 -0 -0 -0 -0 -0 -0 -0 -0 -0 -0 -1 -0 -0 -4 -1 -1 -2 -2 -1 -2 -1 -5 -6 -0 -0 -0 -0 -0
-0 -0 -0 -0 -0 -0 -0 -1 -0 -0 -0 -0 -0 -0 -0 -0 -0 -0 -0 -1 -1 -3 -3 -0 -0 -0 -0 -0 -0 -0 -0 -0 -0
-0 -0 -4 -0 -0 -0 -0 -0 -0 -0 -0 -0 -0 -0 -0 -0 -0 -0 -0 -0 -1 -1 -0 -0 -0 -0 -0 -0 -0 -0 -0 -0 -0
Wind_Speed
12 12 11 11 16 16 15 16 16 15 16 13 10 6 2 6 9 9 11 12 13 15 16 15 16 16 16 16 17 16 16 17 17
13 12 12 12 15 15 15 15 15 15 14 14 11 3 5 5 7 9 11 11 14 15 14 15 15 16 16 17 17 17 17 16 16
14 14 14 15 14 15 15 15 14 12 13 12 9 3 2 5 7 10 10 13 15 15 15 14 15 15 16 16 17 17 17 16 15
16 16 17 16 15 14 13 13 14 12 12 11 7 2 6 5 7 9 8 11 14 15 14 14 14 15 15 16 16 16 16 15 14
15 16 17 17 16 15 14 13 14 12 11 10 6 4 5 9 7 7 8 11 13 14 14 13 14 15 14 15 15 15 15 15 14
16 17 16 17 16 15 15 14 14 12 10 8 6 7 4 7 5 7 10 12 14 13 12 13 13 14 14 13 13 14 14 14 13
13 14 16 15 15 14 13 14 16 11 7 6 6 6 5 4 6 7 9 12 13 12 12 11 12 13 13 13 13 12 12 12 12
9 8 9 11 12 9 11 11 8 11 8 7 6 4 4 4 5 9 8 12 13 12 11 11 11 11 11 12 12 12 12 11 11
15 8 10 10 9 12 10 7 8 10 10 10 8 7 5 4 5 8 10 11 11 11 11 10 10 10 10 11 11 11 11 10 10
12 7 9 9 11 10 10 9 10 9 9 8 7 7 6 7 5 6 7 9 11 11 11 10 10 10 9 10 9 9 9 8 8
11 13 8 9 11 9 11 10 9 8 8 7 7 6 5 7 9 6 4 7 10 10 11 10 10 10 10 9 8 8 8 7 7
9 11 10 10 11 10 8 11 8 8 8 9 7 5 5 6 9 6 4 5 5 7 10 10 10 9 9 8 7 7 7 6 6
7 8 12 16 10 9 10 10 9 8 8 8 7 6 6 7 9 8 7 4 5 3 8 8 9 9 8 8 8 6 6 5 5
4 9 10 13 7 9 10 10 11 9 8 8 8 7 6 7 8 10 7 5 4 4 5 7 7 7 8 8 7 7 6 5 4
8 7 9 12 11 11 10 12 11 10 9 8 7 5 3 3 5 8 8 6 5 4 4 4 4 7 8 8 8 8 7 5 4
8 4 7 10 9 11 14 11 15 11 11 7 6 5 5 3 6 7 8 10 8 5 4 4 5 5 7 8 8 8 7 6 4
8 10 7 9 10 14 14 14 10 9 12 10 6 2 1 4 3 4 6 8 7 8 9 9 7 6 6 7 8 9 8 7 5
9 9 9 9 7 8 11 15 16 13 12 16 6 7 6 7 1 4 5 7 7 7 7 7 6 5 5 7 6 3 7 8 6
9 10 10 9 6 10 13 11 15 15 16 12 8 5 6 6 5 4 6 8 8 8 7 7 7 7 4 7 7 11 6 7 6
10 10 10 9 5 9 16 8 13 15 15 13 13 8 4 6 4 5 8 6 9 8 8 8 8 8 7 5 7 11 11 10 9
Wind_Direction
185 180 156 139 128 126 130 125 120 117 120 122 122 133 237 287 88 97 91 90 99 95 92 91 95 94 95 86 83 79 80 79 77
183 173 148 140 134 138 139 130 126 125 127 130 133 142 303 114 111 102 100 104 103 104 101 100 99 98 93 94 92 89 83 78 74
179 167 150 145 142 146 146 139 134 132 136 134 135 152 189 117 104 97 93 107 108 104 101 102 95 98 94 94 92 91 89 85 85
179 163 157 154 153 151 146 142 131 142 138 135 135 172 293 129 99 112 115 113 110 108 104 102 104 98 97 96 91 89 91 90 84
179 166 164 159 154 152 147 147 141 145 139 132 137 200 260 110 132 116 109 118 114 110 106 107 105 103 101 99 97 96 92 89 89
183 186 163 165 162 155 155 144 138 127 124 132 169 220 144 143 125 105 116 120 117 115 119 116 109 103 102 90 96 95 97 90 86
199 187 159 163 156 157 162 147 132 151 153 155 189 228 152 130 119 114 139 129 121 120 111 115 113 108 111 111 106 103 98 94 91
195 177 163 169 164 165 161 141 168 188 165 160 186 181 155 132 117 125 132 127 125 126 128 121 116 118 112 109 107 108 102 98 91
307 167 176 174 178 179 176 170 196 188 174 174 190 170 173 142 125 128 128 132 133 135 130 127 123 119 116 110 113 108 107 102 97
321 237 180 177 180 181 171 174 198 185 180 180 175 176 177 147 115 135 143 147 147 142 137 135 133 124 119 118 113 109 107 104 100
344 339 186 190 182 186 169 174 193 173 179 182 180 180 173 150 120 127 138 148 139 152 144 147 144 136 132 126 124 119 108 98 86
354 327 326 245 182 170 157 172 169 176 172 175 182 179 176 153 145 138 138 130 123 148 157 156 151 144 142 133 129 119 108 101 91
8 315 327 318 179 167 164 174 166 176 178 172 172 173 184 156 152 167 170 160 159 155 146 165 161 157 153 148 139 130 125 113 97
355 339 312 320 214 172 171 172 172 173 176 175 166 176 173 174 161 163 176 160 165 158 144 166 170 162 170 162 157 155 152 143 131
314 288 326 317 329 174 180 172 176 173 167 162 160 158 152 167 180 160 166 175 161 124 142 127 167 181 188 186 175 173 171 166 157
278 330 306 305 305 279 171 175 170 173 161 132 66 26 355 193 209 177 175 174 190 169 159 184 199 170 201 203 193 189 185 179 173
321 321 303 327 315 325 187 177 171 169 153 152 122 140 283 293 247 204 194 186 185 183 194 194 204 175 184 192 199 202 197 192 185
302 289 298 294 302 304 260 177 178 158 170 163 156 157 207 148 257 282 223 196 191 193 202 199 201 199 189 152 157 174 218 202 194
292 291 295 278 299 293 301 221 173 168 171 171 220 193 146 179 159 214 226 223 211 199 195 200 202 203 206 172 182 172 170 198 208
303 303 300 284 274 283 295 216 209 180 175 191 187 192 148 202 153 170 183 215 221 207 208 194 201 203 199 188 166 173 190 207 219